| time (UTC) | temp F | wind direction | speed knots | gust knots | rain 1hr in | rain 24hr in | rain mn in | humidity % | barometer mb |
| 20260505015005 | 59 | 309 | 5.2 | 9.6 | 0.00 | 0.00 | 0.00 | 48 | 1006.7 |
| 20260505014520 | 58 | 235 | 1.7 | 7.0 | 0.00 | 0.00 | 0.00 | 48 | 1006.5 |
| 20260505014004 | 59 | 226 | 0.0 | 1.7 | 0.00 | 0.00 | 0.00 | 45 | 1006.3 |
| 20260505013503 | 60 | 226 | 0.0 | 1.7 | 0.00 | 0.00 | 0.00 | 45 | 1006.3 |
| 20260505013024 | 60 | 226 | 0.0 | 1.7 | 0.00 | 0.00 | 0.00 | 44 | 1006.2 |
| 20260505012504 | 61 | 226 | 0.0 | 1.7 | 0.00 | 0.00 | 0.00 | 43 | 1006.1 |
| 20260505012004 | 61 | 226 | 0.0 | 1.7 | 0.00 | 0.00 | 0.00 | 42 | 1006.1 |
| 20260505011508 | 61 | 226 | 0.0 | 1.7 | 0.00 | 0.00 | 0.00 | 41 | 1006.0 |
| 20260505011005 | 62 | 226 | 0.9 | 3.5 | 0.00 | 0.00 | 0.00 | 41 | 1005.9 |
| 20260505010504 | 62 | 226 | 0.9 | 3.5 | 0.00 | 0.00 | 0.00 | 42 | 1005.9 |
| 20260505010010 | 62 | 234 | 0.9 | 2.6 | 0.00 | 0.00 | 0.00 | 41 | 1005.9 |
| 20260505005507 | 62 | 246 | 0.9 | 3.5 | 0.00 | 0.00 | 0.00 | 41 | 1005.8 |
| 20260505005008 | 62 | 253 | 1.7 | 3.5 | 0.00 | 0.00 | 0.00 | 41 | 1005.8 |
| 20260505004517 | 62 | 263 | 1.7 | 3.5 | 0.00 | 0.00 | 0.00 | 41 | 1005.7 |
| 20260505004009 | 62 | 259 | 1.7 | 3.5 | 0.00 | 0.00 | 0.00 | 41 | 1005.6 |
| 20260505003506 | 63 | 278 | 1.7 | 3.5 | 0.00 | 0.00 | 0.00 | 40 | 1005.6 |
| 20260505003004 | 62 | 244 | 0.9 | 3.5 | 0.00 | 0.00 | 0.00 | 41 | 1005.5 |
| 20260505002504 | 62 | 244 | 0.9 | 2.6 | 0.00 | 0.00 | 0.00 | 41 | 1005.5 |
| 20260505002004 | 63 | 249 | 0.9 | 2.6 | 0.00 | 0.00 | 0.00 | 40 | 1005.3 |
| 20260505001506 | 62 | 277 | 0.9 | 2.6 | 0.00 | 0.00 | 0.00 | 41 | 1005.3 |
| 20260505001005 | 62 | 219 | 0.9 | 3.5 | 0.00 | 0.00 | 0.00 | 41 | 1005.2 |
| 20260505000503 | 63 | 207 | 0.9 | 3.5 | 0.00 | 0.00 | 0.00 | 40 | 1005.1 |
| 20260505000022 | 63 | 248 | 0.9 | 3.5 | 0.00 | 0.00 | 0.00 | 40 | 1005.0 |
| 20260504235504 | 63 | 260 | 0.9 | 3.5 | 0.00 | 0.00 | 0.00 | 39 | 1005.0 |
| 20260504235004 | 63 | 235 | 1.7 | 5.2 | 0.00 | 0.00 | 0.00 | 40 | 1004.9 |
| 20260504234521 | 63 | 256 | 1.7 | 5.2 | 0.00 | 0.00 | 0.00 | 40 | 1004.9 |
| 20260504234008 | 63 | 240 | 0.9 | 2.6 | 0.00 | 0.00 | 0.00 | 39 | 1004.8 |
| 20260504233506 | 64 | 234 | 0.9 | 2.6 | 0.00 | 0.00 | 0.00 | 38 | 1004.8 |
| 20260504233020 | 64 | 233 | 0.9 | 2.6 | 0.00 | 0.00 | 0.00 | 38 | 1004.9 |
| 20260504232508 | 65 | 241 | 0.9 | 3.5 | 0.00 | 0.00 | 0.00 | 37 | 1004.9 |
| 20260504232003 | 65 | 240 | 0.9 | 3.5 | 0.00 | 0.00 | 0.00 | 36 | 1004.8 |
| 20260504231510 | 66 | 221 | 0.9 | 5.2 | 0.00 | 0.00 | 0.00 | 37 | 1004.6 |
| 20260504231004 | 66 | 224 | 1.7 | 5.2 | 0.00 | 0.00 | 0.00 | 35 | 1004.4 |
| 20260504230504 | 67 | 231 | 1.7 | 5.2 | 0.00 | 0.00 | 0.00 | 35 | 1004.3 |
| 20260504230006 | 67 | 221 | 1.7 | 6.1 | 0.00 | 0.00 | 0.00 | 35 | 1004.3 |
| 20260504225502 | 67 | 259 | 0.9 | 6.1 | 0.00 | 0.00 | 0.00 | 34 | 1004.2 |
| 20260504225005 | 67 | 221 | 3.5 | 5.2 | 0.00 | 0.00 | 0.00 | 34 | 1004.2 |
| 20260504224511 | 67 | 234 | 1.7 | 5.2 | 0.00 | 0.00 | 0.00 | 34 | 1004.1 |
| 20260504224011 | 68 | 225 | 1.7 | 5.2 | 0.00 | 0.00 | 0.00 | 34 | 1004.0 |
| 20260504223510 | 68 | 241 | 2.6 | 7.0 | 0.00 | 0.00 | 0.00 | 34 | 1004.0 |
| 20260504223016 | 68 | 259 | 2.6 | 7.0 | 0.00 | 0.00 | 0.00 | 33 | 1004.0 |
| 20260504222505 | 69 | 267 | 1.7 | 9.6 | 0.00 | 0.00 | 0.00 | 33 | 1004.0 |
| 20260504222007 | 69 | 244 | 2.6 | 9.6 | 0.00 | 0.00 | 0.00 | 32 | 1004.0 |
| 20260504221521 | 69 | 277 | 4.3 | 10.4 | 0.00 | 0.00 | 0.00 | 31 | 1004.2 |
| 20260504221004 | 69 | 276 | 3.5 | 10.4 | 0.00 | 0.00 | 0.00 | 32 | 1004.0 |
| 20260504220508 | 68 | 238 | 2.6 | 9.6 | 0.00 | 0.00 | 0.00 | 33 | 1004.0 |
| 20260504220011 | 68 | 269 | 2.6 | 9.6 | 0.00 | 0.00 | 0.00 | 33 | 1004.0 |
| 20260504215505 | 68 | 234 | 3.5 | 11.3 | 0.00 | 0.00 | 0.00 | 31 | 1004.0 |
| 20260504215006 | 69 | 286 | 4.3 | 11.3 | 0.00 | 0.00 | 0.00 | 32 | 1004.1 |
| 20260504214510 | 70 | 276 | 4.3 | 9.6 | 0.00 | 0.00 | 0.00 | 31 | 1004.0 |
| 20260504214004 | 71 | 246 | 4.3 | 9.6 | 0.00 | 0.00 | 0.00 | 31 | 1004.0 |
| 20260504213505 | 70 | 227 | 4.3 | 8.7 | 0.00 | 0.00 | 0.00 | 31 | 1003.9 |
| 20260504213016 | 71 | 263 | 3.5 | 10.4 | 0.00 | 0.00 | 0.00 | 31 | 1003.8 |
| 20260504212509 | 70 | 208 | 3.5 | 10.4 | 0.00 | 0.00 | 0.00 | 33 | 1003.9 |
| 20260504212011 | 70 | 235 | 2.6 | 8.7 | 0.00 | 0.00 | 0.00 | 32 | 1003.9 |
| 20260504211517 | 70 | 243 | 3.5 | 8.7 | 0.00 | 0.00 | 0.00 | 33 | 1003.9 |
| 20260504211006 | 69 | 212 | 3.5 | 10.4 | 0.00 | 0.00 | 0.00 | 33 | 1003.9 |
| 20260504210511 | 69 | 279 | 5.2 | 11.3 | 0.00 | 0.00 | 0.00 | 33 | 1003.9 |
| 20260504210006 | 69 | 268 | 4.3 | 11.3 | 0.00 | 0.00 | 0.00 | 33 | 1003.7 |
| 20260504205509 | 71 | 286 | 3.5 | 10.4 | 0.00 | 0.00 | 0.00 | 31 | 1003.8 |
| 20260504205007 | 71 | 258 | 4.3 | 13.0 | 0.00 | 0.00 | 0.00 | 32 | 1003.7 |
| 20260504204508 | 70 | 243 | 7.0 | 13.0 | 0.00 | 0.00 | 0.00 | 31 | 1003.7 |
| 20260504204006 | 71 | 227 | 3.5 | 11.3 | 0.00 | 0.00 | 0.00 | 32 | 1003.7 |
| 20260504203504 | 71 | 219 | 6.1 | 12.2 | 0.00 | 0.00 | 0.00 | 32 | 1003.7 |
| 20260504203020 | 70 | 247 | 4.3 | 12.2 | 0.00 | 0.00 | 0.00 | 32 | 1003.5 |
| 20260504202504 | 70 | 248 | 4.3 | 8.7 | 0.00 | 0.00 | 0.00 | 31 | 1003.7 |
| 20260504202009 | 70 | 234 | 3.5 | 8.7 | 0.00 | 0.00 | 0.00 | 33 | 1003.7 |
| 20260504201520 | 69 | 267 | 4.3 | 13.9 | 0.00 | 0.00 | 0.00 | 31 | 1003.7 |
| 20260504201008 | 72 | 288 | 4.3 | 13.9 | 0.00 | 0.00 | 0.00 | 32 | 1003.6 |
| 20260504200514 | 72 | 254 | 6.1 | 12.2 | 0.00 | 0.00 | 0.00 | 31 | 1003.8 |
| 20260504200025 | 72 | 276 | 4.3 | 11.3 | 0.00 | 0.00 | 0.00 | 31 | 1003.6 |
| 20260504195508 | 72 | 252 | 6.1 | 11.3 | 0.00 | 0.00 | 0.00 | 30 | 1003.7 |
| 20260504195008 | 70 | 308 | 3.5 | 14.8 | 0.00 | 0.00 | 0.00 | 31 | 1003.8 |
| 20260504194515 | 70 | 231 | 6.1 | 14.8 | 0.00 | 0.00 | 0.00 | 32 | 1004.0 |
| 20260504194004 | 70 | 261 | 5.2 | 13.9 | 0.00 | 0.00 | 0.00 | 33 | 1004.0 |
| 20260504193505 | 69 | 238 | 7.0 | 13.9 | 0.00 | 0.00 | 0.00 | 31 | 1004.1 |
| 20260504193023 | 70 | 252 | 3.5 | 9.6 | 0.00 | 0.00 | 0.00 | 33 | 1004.2 |
| 20260504192508 | 69 | 247 | 3.5 | 11.3 | 0.00 | 0.00 | 0.00 | 32 | 1004.0 |
| 20260504192008 | 68 | 248 | 3.5 | 11.3 | 0.00 | 0.00 | 0.00 | 32 | 1004.0 |
| 20260504191516 | 68 | 250 | 4.3 | 11.3 | 0.00 | 0.00 | 0.00 | 33 | 1004.2 |
| 20260504191009 | 68 | 244 | 5.2 | 12.2 | 0.00 | 0.00 | 0.00 | 32 | 1004.3 |
| 20260504190508 | 69 | 198 | 5.2 | 12.2 | 0.00 | 0.00 | 0.00 | 32 | 1004.2 |
| 20260504190032 | 69 | 228 | 4.3 | 9.6 | 0.00 | 0.00 | 0.00 | 33 | 1004.2 |
| 20260504185510 | 69 | 284 | 2.6 | 8.7 | 0.00 | 0.00 | 0.00 | 32 | 1004.3 |
| 20260504185007 | 68 | 225 | 3.5 | 10.4 | 0.00 | 0.00 | 0.00 | 32 | 1004.3 |
| 20260504184533 | 69 | 227 | 4.3 | 10.4 | 0.00 | 0.00 | 0.00 | 30 | 1004.3 |
| 20260504184010 | 69 | 271 | 6.1 | 9.6 | 0.00 | 0.00 | 0.00 | 31 | 1004.4 |
| 20260504183513 | 70 | 190 | 2.6 | 9.6 | 0.00 | 0.00 | 0.00 | 31 | 1004.3 |
| 20260504183012 | 71 | 263 | 3.5 | 9.6 | 0.00 | 0.00 | 0.00 | 33 | 1004.2 |
| 20260504182506 | 70 | 291 | 5.2 | 14.8 | 0.00 | 0.00 | 0.00 | 30 | 1004.3 |
| 20260504182006 | 69 | 240 | 7.0 | 14.8 | 0.00 | 0.00 | 0.00 | 30 | 1004.2 |
| 20260504181526 | 70 | 250 | 7.0 | 14.8 | 0.00 | 0.00 | 0.00 | 30 | 1004.2 |
| 20260504181017 | 69 | 273 | 7.0 | 15.6 | 0.00 | 0.00 | 0.00 | 30 | 1004.3 |
| 20260504180506 | 70 | 238 | 5.2 | 15.6 | 0.00 | 0.00 | 0.00 | 31 | 1004.2 |
| 20260504180020 | 72 | 290 | 7.0 | 15.6 | 0.00 | 0.00 | 0.00 | 31 | 1004.3 |
| 20260504175510 | 70 | 246 | 7.0 | 15.6 | 0.00 | 0.00 | 0.00 | 29 | 1004.2 |
| 20260504175008 | 70 | 256 | 7.8 | 14.8 | 0.00 | 0.00 | 0.00 | 29 | 1004.3 |
| 20260504174522 | 71 | 172 | 7.0 | 18.2 | 0.00 | 0.00 | 0.00 | 30 | 1004.4 |
| 20260504174010 | 70 | 296 | 8.7 | 18.2 | 0.00 | 0.00 | 0.00 | 30 | 1004.3 |
| 20260504173510 | 72 | 298 | 5.2 | 13.9 | 0.00 | 0.00 | 0.00 | 28 | 1004.4 |
| 20260504173026 | 73 | 248 | 2.6 | 12.2 | 0.00 | 0.00 | 0.00 | 30 | 1004.4 |
| 20260504172512 | 72 | 215 | 5.2 | 13.9 | 0.00 | 0.00 | 0.00 | 29 | 1004.3 |
| 20260504172005 | 71 | 338 | 3.5 | 13.9 | 0.00 | 0.00 | 0.00 | 29 | 1004.5 |
| 20260504171513 | 71 | 275 | 6.1 | 14.8 | 0.00 | 0.00 | 0.00 | 29 | 1004.5 |
| 20260504171012 | 70 | 284 | 6.1 | 15.6 | 0.00 | 0.00 | 0.00 | 29 | 1004.5 |
| 20260504170509 | 68 | 263 | 6.1 | 15.6 | 0.00 | 0.00 | 0.00 | 31 | 1004.6 |
| 20260504151009 | 66 | 285 | 2.6 | 13.9 | 0.00 | 0.00 | 0.00 | 38 | 1005.5 |
| 20260504150509 | 66 | 309 | 4.3 | 13.9 | 0.00 | 0.00 | 0.00 | 36 | 1005.4 |
| 20260504141015 | 62 | 247 | 2.6 | 8.7 | 0.00 | 0.00 | 0.00 | 44 | 1006.3 |
| 20260504140504 | 60 | 252 | 6.1 | 8.7 | 0.00 | 0.00 | 0.00 | 44 | 1006.5 |
| 20260504130508 | 56 | 200 | 1.7 | 9.6 | 0.00 | 0.00 | 0.00 | 51 | 1007.1 |
| 20260504110509 | 45 | 217 | 4.3 | 6.1 | 0.00 | 0.00 | 0.00 | 64 | 1007.8 |
| 20260504100508 | 42 | 236 | 1.7 | 7.0 | 0.00 | 0.00 | 0.00 | 66 | 1007.6 |
| 20260504081519 | 40 | 279 | 0.0 | 1.7 | 0.00 | 0.00 | 0.00 | 69 | 1007.6 |
| 20260504081008 | 40 | 279 | 0.0 | 1.7 | 0.00 | 0.00 | 0.00 | 69 | 1007.5 |
| 20260504080509 | 40 | 279 | 0.0 | 1.7 | 0.00 | 0.00 | 0.00 | 68 | 1007.5 |
| 20260504050514 | 38 | 252 | 0.0 | 1.7 | 0.00 | 0.00 | 0.00 | 70 | 1007.5 |
| 20260504050018 | 38 | 252 | 0.0 | 1.7 | 0.00 | 0.00 | 0.00 | 69 | 1007.6 |
| 20260504045507 | 38 | 252 | 0.0 | 1.7 | 0.00 | 0.00 | 0.00 | 70 | 1007.6 |
| 20260504045006 | 39 | 252 | 0.0 | 1.7 | 0.00 | 0.00 | 0.00 | 68 | 1007.6 |
| 20260504044523 | 39 | 252 | 0.0 | 1.7 | 0.00 | 0.00 | 0.00 | 68 | 1007.6 |
| 20260504044005 | 39 | 252 | 0.0 | 1.7 | 0.00 | 0.00 | 0.00 | 68 | 1007.6 |
| 20260504043504 | 38 | 252 | 0.0 | 1.7 | 0.00 | 0.00 | 0.00 | 68 | 1007.7 |
| 20260504043004 | 38 | 252 | 0.0 | 1.7 | 0.00 | 0.00 | 0.00 | 68 | 1007.6 |
| 20260504042504 | 39 | 252 | 0.0 | 1.7 | 0.00 | 0.00 | 0.00 | 68 | 1007.5 |
| 20260504042004 | 38 | 252 | 0.0 | 1.7 | 0.00 | 0.00 | 0.00 | 69 | 1007.5 |
| 20260504041510 | 38 | 252 | 0.0 | 1.7 | 0.00 | 0.00 | 0.00 | 70 | 1007.6 |
| 20260504041004 | 38 | 252 | 0.0 | 1.7 | 0.00 | 0.00 | 0.00 | 69 | 1007.4 |
| 20260504040504 | 38 | 252 | 0.0 | 1.7 | 0.00 | 0.00 | 0.00 | 69 | 1007.4 |
| 20260504040014 | 38 | 252 | 0.0 | 0.9 | 0.00 | 0.00 | 0.00 | 69 | 1007.4 |
| 20260504035507 | 38 | 252 | 0.0 | 0.9 | 0.00 | 0.00 | 0.00 | 68 | 1007.4 |
| 20260504035008 | 38 | 252 | 0.0 | 1.7 | 0.00 | 0.00 | 0.00 | 67 | 1007.4 |
| 20260504034535 | 39 | 252 | 0.0 | 1.7 | 0.00 | 0.00 | 0.00 | 67 | 1007.3 |
| 20260504034008 | 39 | 242 | 0.0 | 1.7 | 0.00 | 0.00 | 0.00 | 66 | 1007.3 |
| 20260504033512 | 39 | 242 | 0.0 | 1.7 | 0.00 | 0.00 | 0.00 | 67 | 1007.3 |
| 20260504033029 | 39 | 242 | 0.0 | 1.7 | 0.00 | 0.00 | 0.00 | 67 | 1007.3 |
| 20260504032506 | 39 | 242 | 0.0 | 0.0 | 0.00 | 0.00 | 0.00 | 66 | 1007.2 |
| 20260504032004 | 39 | 242 | 0.0 | 0.9 | 0.00 | 0.00 | 0.00 | 66 | 1007.2 |
| 20260504031509 | 39 | 242 | 0.0 | 1.7 | 0.00 | 0.00 | 0.00 | 65 | 1007.2 |
| 20260504031004 | 39 | 242 | 0.0 | 1.7 | 0.00 | 0.00 | 0.00 | 66 | 1007.2 |
| 20260504030504 | 39 | 242 | 0.0 | 1.7 | 0.00 | 0.00 | 0.00 | 69 | 1007.1 |
| 20260504030012 | 39 | 242 | 0.0 | 1.7 | 0.00 | 0.00 | 0.00 | 68 | 1007.2 |
| 20260504025507 | 40 | 242 | 0.0 | 1.7 | 0.00 | 0.00 | 0.00 | 66 | 1007.1 |
| 20260504025003 | 40 | 242 | 0.0 | 2.6 | 0.00 | 0.01 | 0.00 | 65 | 1007.0 |
| 20260504024519 | 40 | 242 | 0.0 | 2.6 | 0.00 | 0.01 | 0.00 | 65 | 1007.0 |
| 20260504024004 | 40 | 242 | 0.9 | 2.6 | 0.00 | 0.01 | 0.00 | 65 | 1007.1 |
| 20260504023508 | 40 | 242 | 0.0 | 1.7 | 0.00 | 0.01 | 0.00 | 65 | 1007.0 |
| 20260504023020 | 39 | 242 | 0.0 | 1.7 | 0.00 | 0.01 | 0.00 | 67 | 1007.0 |
| 20260504022508 | 39 | 242 | 0.0 | 1.7 | 0.00 | 0.01 | 0.00 | 68 | 1007.0 |
| 20260504022011 | 39 | 242 | 0.0 | 1.7 | 0.00 | 0.01 | 0.00 | 68 | 1007.0 |
| 20260504021524 | 39 | 242 | 0.0 | 1.7 | 0.00 | 0.01 | 0.00 | 68 | 1006.9 |
| 20260504021002 | 39 | 242 | 0.0 | 1.7 | 0.00 | 0.01 | 0.00 | 70 | 1007.0 |
| 20260504020505 | 39 | 242 | 0.0 | 0.0 | 0.00 | 0.01 | 0.00 | 68 | 1007.0 |
| 20260504020010 | 39 | 242 | 0.0 | 0.0 | 0.00 | 0.01 | 0.00 | 68 | 1007.1 |
| 20260504015507 | 39 | 242 | 0.0 | 0.0 | 0.00 | 0.01 | 0.00 | 69 | 1007.1 |